Regional Weather Roundup
Issued by NWS

Home | Current Version | Previous Version | Graphics & Text | Print | Product List | Glossary On
Versions: 1 2 3 4 5 6 7 8 9 10 11 12 13 14 15 16 17 18 19 20 21 22 23 24 25 26 27 28 29 30 31 32 33 34 35 36 37 38 39 40 41 42 43 44 45 46 47 48 49 50
000
ASUS43 KMPX 300610
RWRMN
WEATHER ROUNDUP FOR MINNESOTA
NATIONAL WEATHER SERVICE TWIN CITIES/CHANHASSEN MN
100 AM CDT SUN APR 30 2017


NOTE: "FAIR" INDICATES FEW OR NO CLOUDS BELOW 12,000 FEET WITH NO
SIGNIFICANT WEATHER AND/OR OBSTRUCTIONS TO VISIBILITY. N/A MEANS
CURRENT SKY AND/OR WEATHER CONDITIONS ARE NOT AVAILABLE.

MNZ060>063-068>070-300700-
   Twin Cities Metro

CITY           SKY/WX    TMP DP  RH WIND       PRES   REMARKS
TWIN CITIES    CLOUDY    47  25  42 NE13      30.15F
6HR MIN TEMP:  47; 6HR MAX TEMP:  54;

ST PAUL        CLOUDY    47  27  45 NE14      30.17F
CRYSTAL        CLOUDY    46  23  40 NE9       30.16F
LAKEVILLE      CLOUDY    45  28  53 NE9       30.14S
EDEN PRAIRIE   CLOUDY    49  26  41 NE12      30.14F
6HR MIN TEMP:  49; 6HR MAX TEMP:  54;

SOUTH ST PAUL  CLOUDY    46  26  45 NE7G17    30.15F
LAKE ELMO      CLOUDY    45  28  53 NE8       30.18S
$$
MNZ001>005-007-008-013>017-022>024-027-028-300700-
   Northwest Minnesota

CITY           SKY/WX    TMP DP  RH WIND       PRES   REMARKS
BEMIDJI        CLOUDY    43  25  49 SE8       30.22F
HALLOCK        PTCLDY    39  28  65 SE9       30.20S
ROSEAU         CLOUDY    45  25  45 SE7       30.22F
WARROAD        MOCLDY    45  27  49 SE10      30.23F
THIEF RVR FALL CLOUDY    46  25  43 E5        30.22F
CROOKSTON      PTCLDY    46  28  49 SE5       30.21F
FOSSTON        CLOUDY    39  27  60 E3        30.22F
DETROIT LAKES  MOCLDY    46  23  39 SE10      30.20F
MOORHEAD       CLOUDY    43  30  61 CALM      30.21S
PARK RAPIDS    CLOUDY    43  19  38 SE10      30.22F
MAHNOMEN       FAIR      41  30  64 E6        30.20F
$$
MNZ006-009>011-018-025>026-300700-
   North Central Minnesota

CITY           SKY/WX    TMP DP  RH WIND       PRES   REMARKS
BAUDETTE       CLOUDY    39  21  48 SE5       30.23F
FLAG ISLAND    CLOUDY    43  28  56 SE6       30.23F
INTL FALLS     PTCLDY    34  20  56 SE5       30.27F WCI  30
6HR MIN TEMP:  31; 6HR MAX TEMP:  53;

WASKISH        CLOUDY    41  23  48 E3        30.24F
BIG FORK       CLOUDY    41  19  42 SE3       30.27F
LONGVILLE      CLOUDY    41  18  38 E3        30.24F
GRAND RAPIDS   CLOUDY    38  17  42 CALM      30.28F
CRANE LAKE     CLOUDY    27  25  93 CALM      30.31F
ORR            CLOUDY    37  16  41 E3        30.26F
COOK           CLOUDY    36  18  48 CALM      30.29F
WALKER         FAIR      42  20  40 SE8G17    30.23F
$$
MNZ012-019>021-037-300700-
   Northeast Minnesota

CITY           SKY/WX    TMP DP  RH WIND       PRES   REMARKS
DULUTH         MOCLDY    36  16  44 NE7       30.26S
6HR MIN TEMP:  36; 6HR MAX TEMP:  44;

ELY            CLOUDY    28  21  74 CALM      30.30S
HIBBING        CLOUDY    32  19  58 CALM      30.28F
EVELETH        CLOUDY    32  17  54 CALM      30.29F
DULUTH HARBOR  CLOUDY    39  28  65 NE12      30.30S
TWO HARBORS    PTCLDY    37  19  48 N5        30.28S
SILVER BAY     CLOUDY    36  19  51 N3        30.28S
GRAND MARAIS     N/A     31  24  75 CALM      30.32F
G MARAIS ARPRT CLOUDY    27  19  74 N5        30.30F WCI  21
$$
MNZ029>031-032-039>041-046>048-054>057-064-300700-
   West Central Minnesota

CITY           SKY/WX    TMP DP  RH WIND       PRES   REMARKS
FERGUS FALLS   CLOUDY    48  25  40 SE8       30.19S
WHEATON        MOCLDY    43  27  52 CALM      30.21S
MORRIS         CLOUDY    46  25  42 E9        30.18F
ALEXANDRIA     CLOUDY    45  23  42 E10       30.21F
ELBOW LAKE     FAIR      46  28  49 SE10      30.20S
WADENA         CLOUDY    43  25  49 E7        30.22F
GLENWOOD       CLOUDY    43  25  49 NE12      30.19F
APPLETON       CLOUDY    46  18  31 E8        30.18S
BENSON         CLOUDY    46  12  25 E5        30.19F
ORTONVILLE     CLOUDY    46  27  46 E7        30.18F
MADISON        CLOUDY    48  25  40 NE8       30.17F
WILLMAR        FAIR      46  23  39 NE12      30.19S
$$
MNZ033>034-036-042>043-049>051-058-059-300700-
   Central Minnesota

CITY           SKY/WX    TMP DP  RH WIND       PRES   REMARKS
ST CLOUD       CLOUDY    43  25  49 NE8       30.19F
6HR MIN TEMP:  43; 6HR MAX TEMP:  53;

SAUK CENTRE    FAIR      44  22  42 NE7       30.20F
PAYNESVILLE    CLOUDY    44  22  41 NE7       30.19S
AITKIN         MOCLDY    39  19  45 E3        30.25F
PINE RIVER     CLOUDY    39  23  52 E5        30.27F
BRAINERD       CLOUDY    40  20  44 E7        30.25F
STAPLES        CLOUDY    41  18  38 E7        30.23F
LONG PRAIRIE   FAIR      41  25  52 N7        30.22F
LITTLE FALLS   MOCLDY    41  21  45 NE3       30.23F
LITCHFIELD     CLOUDY    46  27  46 E9        30.17F
BUFFALO        MOCLDY    45  25  46 NE10      30.18F
MAPLE LAKE     MOCLDY    46  27  48 NE9       30.19S
HUTCHINSON     CLOUDY    46  30  52 NE10      30.16F
$$
MNZ037-044-045-052-053-300700-
   East Central Minnesota

CITY           SKY/WX    TMP DP  RH WIND       PRES   REMARKS
PRINCETON      CLOUDY    45  25  45 NE10      30.20F
MORA           CLOUDY    37  21  52 NE7       30.24F
CAMBRIDGE      CLOUDY    45  27  49 NE7       30.19F
RUSH CITY      MOCLDY    40  23  49 NE7       30.22F
MOOSE LAKE     CLOUDY    36  21  55 CALM      30.24F
HINCKLEY       FAIR      39  23  52 NE6       30.24F
CLOQUET        CLOUDY    37  14  38 NE3       30.26F
MCGREGOR       CLOUDY    37  21  52 NE5       30.26F
$$
MNZ071>073-080-081-089-090-097-098-300700-
   Southwest Minnesota

CITY           SKY/WX    TMP DP  RH WIND       PRES   REMARKS
MONTEVIDEO     CLOUDY    46  21  36 E10       30.17S
GRANITE FALLS  CLOUDY    48  26  41 NE9       30.17F
CANBY          CLOUDY    46  24  41 NE6       30.18F
MARSHALL       CLOUDY    45  25  45 NE10      30.14F
REDWOOD FALLS  CLOUDY    47  27  45 NE8       30.14F
OLIVIA         CLOUDY    46  30  53 NE8       30.14F
PIPESTONE      CLOUDY    46  19  34 NE9       30.12F
WINDOM         CLOUDY    45  27  49 NE10      30.10F
WORTHINGTON    CLOUDY    44  28  53 NE13      30.09F
JACKSON        CLOUDY    45  30  57 NE9       30.10F
TRACY          MOCLDY    45  30  55 NE9       30.13F
SLAYTON        CLOUDY    44  26  49 NE9       30.12F
$$
MNZ065>067-074>077-082>085-091>093-300700-
   South Central Minnesota

CITY           SKY/WX    TMP DP  RH WIND       PRES   REMARKS
MANKATO        CLOUDY    48  29  47 NE10      30.13R
NEW ULM        CLOUDY    46  23  39 NE12      30.12F
ST JAMES       CLOUDY    45  32  61 N8        30.12F
FAIRMONT       CLOUDY    46  32  58 NE9       30.10F
GLENCOE        CLOUDY    47  28  48 NE8       30.14F
FARIBAULT      CLOUDY    46  30  53 N12       30.12S
OWATONNA       CLOUDY    46  30  53 NE8       30.11S
WASECA         CLOUDY    45  30  57 NE8       30.12S
ALBERT LEA     CLOUDY    45  30  57 NE12      30.09S
$$
MNZ078>079-086>088-094>096-300700-
   Southeast Minnesota

CITY           SKY/WX    TMP DP  RH WIND       PRES   REMARKS
ROCHESTER      CLOUDY    44  31  60 NE14      30.10F
6HR MIN TEMP:  44; 6HR MAX TEMP:  47;

RED WING       CLOUDY    48  27  43 E7        30.13S
STANTON        CLOUDY    47  32  56 NE12      30.12S
DODGE CENTER   CLOUDY    45  30  57 NE14      30.10S
WINONA         CLOUDY    48  30  49 E10G17    30.14S
AUSTIN         CLOUDY    45  30  57 E16G24    30.08F
PRESTON        CLOUDY    43  26  52 NE12G21   30.10S
$$
ABBREVIATIONS USED IN REMARKS
   TC - TEMPERATURES IN CELSIUS
  WCI - WIND CHILL INDEX
   HX - HEAT INDEX
  VSB - VISIBILITY
$$



USA.gov is the U.S. government's official web portal to all federal, state and local government web resources and services.